Other Public Products
Issued by NWS Grand Forks, ND

Home | Current Version | Previous Version | Text Only | Print | Product List | Glossary Off
Versions: 1 2 3 4 5 6 7 8 9 10 11 12 13 14 15 16 17 18 19 20 21 22 23 24 25 26 27 28 29 30 31 32 33 34 35 36 37 38 39 40 41 42 43 44 45 46 47 48 49 50

000
FPUS83 KFGF 251210
OPUFGF
PRAIRIE TO PINES WEATHER ROUNDUP
NATIONAL WEATHER SERVICE EASTERN NORTH DAKOTA/GRAND FORKS ND
700 AM CDT WED MAY 25 2016

 **SATELLITE DATA USED TO AUGMENT SKY COVER AT AUTOMATED STATIONS**
 *****  WEATHER ACROSS EASTERN NORTH DAKOTA  *****

CITY           SKY/WX    TMP DP  RH WIND       PRES   REMARKS
GRAND FORKS    CLOUDY    60  53  77 E9        29.81F
6HR MIN TEMP:  58; 6HR MAX TEMP:  65;

GRAND FORKS AF CLOUDY    58  54  87 E5        29.82F
GRAND CITY NWS   N/A     61 N/A N/A E9          N/A
BUXTON           N/A     61  58  90 NE5         N/A
DEVILS LAKE    CLOUDY    63  52  67 SE10      29.83S
6HR MIN TEMP:  61; 6HR MAX TEMP:  65;

FARGO          CLOUDY    66  51  58 E16       29.79F
6HR MIN TEMP:  66; 6HR MAX TEMP:  67;

WAHPETON ARPT  CLOUDY    63  52  67 E10       29.80S
$$

 *****  WEATHER ACROSS CENTRAL AND WESTERN NORTH DAKOTA  *****

CITY           SKY/WX    TMP DP  RH WIND       PRES   REMARKS
JAMESTOWN      NOT AVBL
BISMARCK       CLOUDY    57  56  96 NE6       29.81S
6HR MIN TEMP:  56; 6HR MAX TEMP:  67; 6HR PCP:  0.11;

MINOT          RAIN      58  55  90 CALM      29.85S FOG
6HR MIN TEMP:  57; 6HR MAX TEMP:  63; 6HR PCP:  0.28;

MINOT AFB      CLOUDY    56  54  93 S8        29.84R
6HR MIN TEMP:  55; 6HR MAX TEMP:  62; 6HR PCP:  0.17;

GARRISON         N/A     56  54  93 NE6       29.83F
6HR MIN TEMP:  56; 6HR MAX TEMP:  63; 6HR PCP:  0.31;

WILLISTON      CLOUDY    52  47  83 NE12      29.84F
6HR MIN TEMP:  51; 6HR MAX TEMP:  57; 6HR PCP:  0.04;

DICKINSON      CLOUDY    50  48  93 E7        29.81S
6HR MIN TEMP:  49; 6HR MAX TEMP:  55; 6HR PCP:  0.04;

HETTINGER      CLOUDY    50  47  89 W3        29.84R
6HR MIN TEMP:  49; 6HR MAX TEMP:  57;

$$

 *****  OTHER OBSERVATIONS NORTHEAST NORTH DAKOTA  *****

CITY           SKY/WX    TMP DP  RH WIND       PRES   REMARKS
WALHALLA       FAIR      52  52 100 NW6       29.87F
LANGDON        FAIR      61  50  67 E10       29.85F
CAVALIER       FAIR      54  54 100 NE3       29.86F
GRAFTON        FAIR      57  57 100 E5        29.86F
CANDO          FAIR      61  48  63 E9        29.84F
FORT TOTTEN      N/A     62  48  60 SE7       29.95S
ROLLA          FAIR      55  50  82 NW8       29.87F
RUGBY          FAIR      57  52  82 NE9       29.82F
 ***** THE ABOVE OBSERVATIONS ARE NON NWS ARE NOT QUALITY
        CONTROLLED AND MAY MIS-REPORT RAIN FOR SNOW...
$$

 *****  OTHER OBSERVATIONS SOUTHEAST NORTH DAKOTA *****

CITY           SKY/WX    TMP DP  RH WIND       PRES   REMARKS
COOPERSTOWN    NOT AVBL
VALLEY CITY    PTSUNNY   59  59 100 E6        29.82F
OAKES            N/A    N/A N/A N/A MISG        N/A
GWINNER        FAIR      63  55  77 NE8       29.78F
SHEYENNE NWR     N/A     58  52  79 E2        29.95S
BUFFALO          N/A     59  54  83 E7          N/A
WYNDMERE         N/A     63  54  72 E3          N/A
 ***** THE ABOVE OBSERVATIONS ARE NON NWS ARE NOT QUALITY
       CONTROLLED AND MAY MIS-REPORT RAIN FOR SNOW...
$$

  *****  WEATHER ACROSS NORTHERN MINNESOTA  *****

CITY           SKY/WX    TMP DP  RH WIND       PRES   REMARKS
FLAG ISLAND    CLOUDY    57  54  88 E5        29.94F
WARROAD        PTSUNNY   57  54  88 E7        29.93F
ROSEAU         CLOUDY    54  48  82 NE3       29.90F
HALLOCK        CLOUDY    59  54  82 E9        29.86S
THF RVR FALLS  PTSUNNY   61  50  67 E9        29.88F
6HR MIN TEMP:  59; 6HR MAX TEMP:  63;

HALSTAD        NOT AVBL
FOSSTON        CLOUDY    57  52  82 E7        29.86F
BAUDETTE       MOSUNNY   54  52  93 SE5       29.93F
6HR MIN TEMP:  50; 6HR MAX TEMP:  55;

WASKISH        CLOUDY    54  54 100 E7        29.94S FOG
CROOKSTON      CLOUDY    61  54  77 E12       29.84F
$$
  *****  WEATHER ACROSS CENTRAL AND WEST MINNESOTA  *****

CITY           SKY/WX    TMP DP  RH WIND       PRES   REMARKS
BEMIDJI        CLOUDY    56  55  95 E10       29.91F
PARK RAPIDS    CLOUDY    59  55  87 E9        29.90S
6HR MIN TEMP:  58; 6HR MAX TEMP:  62;

WADENA         CLOUDY    55  55 100 E6        29.89R
DETROIT LAKES  CLOUDY    61  54  77 SE9       29.88R
MOORHEAD       CLOUDY    64  52  63 E10G16    29.81S
FERGUS FALLS   CLOUDY    64  54  68 E12       29.81R
ELBOW LAKE     FAIR      63  56  79 SE13      29.84R
6HR MIN TEMP:  63; 6HR MAX TEMP:  64;

MORRIS MN      CLOUDY    64  57  77 E9        29.82R
STAPLES        CLOUDY    55  55 100 E7        29.90R
WHEATON        CLOUDY    64  59  82 SE12      29.82S
$$
  *****  WEATHER ELSEWHERE ACROSS MINNESOTA  *****

CITY           SKY/WX    TMP DP  RH WIND       PRES   REMARKS
DULUTH         DRZL/FOG  50  49  96 E10       30.00S VSB 1/4
6HR MIN TEMP:  49; 6HR MAX TEMP:  51; 6HR PCP: TRACE;

INTRNTL FALLS  FOG       53  53 100 E6        29.97F VSB<1/4
6HR MIN TEMP:  44; 6HR MAX TEMP:  53;

ELY            CLOUDY    52  48  87 SE7       30.03S
CLOQUET        FOG       48  46  93 E13G21    29.99R VSB 1/4
BRAINERD       CLOUDY    56  55  97 VRB6      29.92S
6HR MIN TEMP:  55; 6HR MAX TEMP:  57;

HIBBING        CLOUDY    53  52  96 E7        29.99S
6HR MIN TEMP:  52; 6HR MAX TEMP:  55;

ALEXANDRIA     CLOUDY    60  54  80 E12       29.87R
6HR MIN TEMP:  60; 6HR MAX TEMP:  63;

SAINT CLOUD    CLOUDY    59  56  89 E8        29.89R
6HR MIN TEMP:  57; 6HR MAX TEMP:  64;

MINNEAPOLIS    CLOUDY    68  57  68 SE10      29.89R
6HR MIN TEMP:  67; 6HR MAX TEMP:  70;

$$

  *****  WEATHER ACROSS SOUTH DAKOTA  *****

CITY           SKY/WX    TMP DP  RH WIND       PRES   REMARKS
SIOUX FALLS    LGT RAIN  60  58  92 SE9       29.82R
6HR MIN TEMP:  60; 6HR MAX TEMP:  70; 6HR PCP:  0.19;

BROOKINGS      CLOUDY    60  58  92 E15G21    29.76F
WATERTOWN      RAIN      64  60  87 SE18G28   29.77F FOG
6HR MIN TEMP:  63; 6HR MAX TEMP:  69; 6HR PCP:  0.14;

HURON          RAIN      59  58  96 N12       29.73S FOG
6HR MIN TEMP:  59; 6HR MAX TEMP:  69; 6HR PCP:  0.21;

SISSETON         N/A     60  55  83 CALM      29.79R
ABERDEEN       LGT RAIN  60  56  86 NE10      29.78R
6HR MIN TEMP:  60; 6HR MAX TEMP:  66; 6HR PCP:  0.06;

MITCHELL       CLOUDY    62  60  93 S13       29.76R
PIERRE         PTCLDY    55  54  96 SW8       29.75S
6HR MIN TEMP:  55; 6HR MAX TEMP:  58; 6HR PCP:  0.04;

MOBRIDGE       CLOUDY    60  52  74 E15       29.73F
RAPID CITY     CLOUDY    47  45  93 W5        29.86R
6HR MIN TEMP:  44; 6HR MAX TEMP:  54; 6HR PCP:  0.04;

$$

  *****  SOME WEATHER IN NEARBY STATES *****

CITY           SKY/WX    TMP DP  RH WIND       PRES   REMARKS
GLASGOW MT     MOCLDY    45  41  86 E3        29.88R
6HR MIN TEMP:  42; 6HR MAX TEMP:  50;

GREAT FALLS MT CLEAR     38  35  89 S8        29.89S
6HR MIN TEMP:  36; 6HR MAX TEMP:  45;

CHEYENNE WY    CLEAR     44  34  67 W12       29.99R
6HR MIN TEMP:  43; 6HR MAX TEMP:  53;

SCOTTSBLUFF NE CLOUDY    51  47  86 W5        29.93R
6HR MIN TEMP:  47; 6HR MAX TEMP:  52;

OMAHA NE       CLOUDY    65  61  87 E8        29.84R
6HR MIN TEMP:  64; 6HR MAX TEMP:  73; 6HR PCP:  0.50;

DES MOINES IA  TSTM      66  62  87 NE12      29.84F FOG
6HR MIN TEMP:  65; 6HR MAX TEMP:  69; 6HR PCP:  0.36;

DAVENPORT IA   CLOUDY    67  62  84 S8        29.98R
6HR MIN TEMP:  61; 6HR MAX TEMP:  71;

CHICAGO IL     MOSUNNY   69  61  75 S8        30.00R
6HR MIN TEMP:  64; 6HR MAX TEMP:  73;

EAU CLAIRE WI  CLOUDY    61  57  87 CALM      29.95R
6HR MIN TEMP:  55; 6HR MAX TEMP:  61;

LA CROSSE WI   CLOUDY    64  58  80 E3        29.93R
6HR MIN TEMP:  60; 6HR MAX TEMP:  66;

$$

  *****  SOME NATIONAL WEATHER *****

CITY           SKY/WX    TMP DP  RH WIND       PRES   REMARKS
LA GUARDIA NY  MOSUNNY   70  53  54 W6        30.06R
6HR MIN TEMP:  60; 6HR MAX TEMP:  70;                              C1F1C2F2C3F3C4F4C5F5C6F6C7F7C8F8C9F9CaFaCbFbCcFcCdFdCe!


USA.gov is the U.S. government's official web portal to all federal, state and local government web resources and services.